TimeCST,TemperatureF,Dew PointF,Humidity,Sea Level PressureIn,VisibilityMPH,Wind Direction,Wind SpeedMPH,Gust SpeedMPH,PrecipitationIn,Events,Conditions,WindDirDegrees,DateUTC
12:15 AM,46.4,42.8,87,29.60,6.0,SE,4.6,-,N/A,,Clear,140,2013-12-04 06:15:00
12:35 AM,44.6,42.8,93,29.60,7.0,SSE,4.6,-,N/A,,Clear,150,2013-12-04 06:35:00
12:55 AM,44.6,42.8,93,29.60,6.0,ESE,3.5,-,N/A,,Clear,120,2013-12-04 06:55:00
1:15 AM,44.6,41.0,87,29.59,8.0,SSE,5.8,-,N/A,,Clear,150,2013-12-04 07:15:00
1:35 AM,46.4,42.8,87,29.58,8.0,ESE,4.6,-,N/A,,Clear,120,2013-12-04 07:35:00
1:55 AM,46.4,42.8,87,29.58,6.0,SSE,4.6,-,N/A,,Clear,150,2013-12-04 07:55:00
2:15 AM,46.4,42.8,87,29.57,7.0,SE,6.9,-,N/A,,Clear,130,2013-12-04 08:15:00
2:35 AM,44.6,42.8,93,29.57,5.0,SE,4.6,-,N/A,,Clear,130,2013-12-04 08:35:00
2:55 AM,46.4,42.8,87,29.57,5.0,SE,5.8,-,N/A,,Clear,130,2013-12-04 08:55:00
3:15 AM,46.4,42.8,87,29.56,5.0,SE,6.9,-,N/A,,Clear,130,2013-12-04 09:15:00
3:35 AM,46.4,42.8,87,29.56,5.0,SE,6.9,-,N/A,,Clear,140,2013-12-04 09:35:00
3:55 AM,44.6,42.8,93,29.55,3.0,SE,6.9,-,N/A,,Clear,130,2013-12-04 09:55:00
4:15 AM,46.4,42.8,87,29.55,4.0,SE,6.9,-,N/A,,Clear,130,2013-12-04 10:15:00
4:35 AM,46.4,42.8,87,29.55,4.0,SE,5.8,-,N/A,,Clear,130,2013-12-04 10:35:00
4:55 AM,46.4,42.8,87,29.55,5.0,SE,6.9,-,N/A,,Clear,140,2013-12-04 10:55:00
5:15 AM,46.4,42.8,87,29.54,5.0,SE,5.8,-,N/A,,Clear,140,2013-12-04 11:15:00
5:35 AM,46.4,42.8,87,29.54,5.0,SSE,6.9,-,N/A,,Clear,150,2013-12-04 11:35:00
5:55 AM,46.4,42.8,87,29.54,7.0,SSE,4.6,-,N/A,,Clear,150,2013-12-04 11:55:00
6:15 AM,46.4,42.8,87,29.54,8.0,SSE,5.8,-,N/A,,Clear,160,2013-12-04 12:15:00
6:35 AM,46.4,42.8,87,29.54,9.0,SSE,3.5,-,N/A,,Clear,150,2013-12-04 12:35:00
6:55 AM,46.4,42.8,87,29.56,10.0,SSW,4.6,-,N/A,,Clear,200,2013-12-04 12:55:00
7:15 AM,48.2,42.8,82,29.57,10.0,SSW,8.1,-,N/A,,Clear,200,2013-12-04 13:15:00
7:35 AM,50.0,44.6,82,29.57,10.0,South,5.8,-,N/A,,Clear,190,2013-12-04 13:35:00
7:55 AM,51.8,44.6,76,29.58,10.0,SSW,5.8,-,N/A,,Clear,200,2013-12-04 13:55:00
8:15 AM,53.6,44.6,72,29.59,10.0,South,9.2,-,N/A,,Clear,190,2013-12-04 14:15:00
8:35 AM,53.6,46.4,77,29.60,10.0,SW,6.9,-,N/A,,Clear,220,2013-12-04 14:35:00
8:55 AM,55.4,46.4,72,29.61,10.0,SSW,9.2,-,N/A,,Clear,210,2013-12-04 14:55:00
9:15 AM,57.2,46.4,67,29.61,10.0,SSW,11.5,16.1,N/A,,Clear,210,2013-12-04 15:15:00
9:35 AM,57.2,46.4,67,29.63,10.0,SW,11.5,16.1,N/A,,Clear,220,2013-12-04 15:35:00
9:55 AM,60.8,44.6,55,29.63,10.0,WSW,19.6,-,N/A,,Clear,240,2013-12-04 15:55:00
10:15 AM,60.8,44.6,55,29.65,10.0,WSW,19.6,26.5,N/A,,Clear,240,2013-12-04 16:15:00
10:35 AM,60.8,44.6,55,29.65,10.0,SW,12.7,-,N/A,,Clear,230,2013-12-04 16:35:00
10:55 AM,60.8,44.6,55,29.65,10.0,SW,15.0,-,N/A,,Clear,230,2013-12-04 16:55:00
11:15 AM,60.8,44.6,55,29.66,10.0,WSW,15.0,-,N/A,,Clear,250,2013-12-04 17:15:00
11:35 AM,59.0,42.8,55,29.65,10.0,West,13.8,23.0,N/A,,Clear,260,2013-12-04 17:35:00
11:55 AM,59.0,42.8,55,29.66,10.0,WSW,15.0,-,N/A,,Clear,250,2013-12-04 17:55:00
12:15 PM,59.0,42.8,55,29.66,10.0,West,15.0,19.6,N/A,,Clear,270,2013-12-04 18:15:00
12:35 PM,59.0,42.8,55,29.66,10.0,WSW,12.7,-,N/A,,Clear,250,2013-12-04 18:35:00
12:55 PM,57.2,42.8,59,29.66,10.0,West,13.8,-,N/A,,Clear,260,2013-12-04 18:55:00
1:15 PM,57.2,42.8,59,29.67,10.0,West,12.7,18.4,N/A,,Clear,260,2013-12-04 19:15:00
1:35 PM,57.2,44.6,63,29.67,10.0,West,13.8,-,N/A,,Clear,260,2013-12-04 19:35:00
1:55 PM,55.4,42.8,63,29.69,9.0,West,15.0,18.4,N/A,,Scattered Clouds,260,2013-12-04 19:55:00
2:15 PM,53.6,42.8,67,29.69,8.0,West,12.7,-,N/A,,Mostly Cloudy,270,2013-12-04 20:15:00
2:35 PM,50.0,42.8,76,29.70,5.0,WNW,12.7,19.6,N/A,,Mostly Cloudy,290,2013-12-04 20:35:00
2:55 PM,46.4,41.0,81,29.71,3.0,NW,11.5,-,N/A,,Overcast,310,2013-12-04 20:55:00
3:15 PM,46.4,41.0,81,29.72,3.0,West,10.4,-,N/A,,Overcast,280,2013-12-04 21:15:00
3:35 PM,46.4,39.2,76,29.73,4.0,WNW,10.4,-,N/A,,Overcast,290,2013-12-04 21:35:00
3:55 PM,42.8,37.4,81,29.74,3.0,NNW,10.4,-,N/A,,Overcast,330,2013-12-04 21:55:00
4:15 PM,42.8,37.4,81,29.76,2.0,NW,8.1,-,N/A,,Overcast,320,2013-12-04 22:15:00
4:35 PM,41.0,37.4,87,29.77,1.8,NW,8.1,-,N/A,,Overcast,310,2013-12-04 22:35:00
4:55 PM,41.0,37.4,87,29.77,4.0,West,8.1,-,N/A,,Overcast,280,2013-12-04 22:55:00
5:15 PM,41.0,37.4,87,29.79,5.0,WNW,9.2,-,N/A,,Overcast,290,2013-12-04 23:15:00
5:35 PM,39.2,35.6,87,29.83,2.5,NW,8.1,-,N/A,,Overcast,320,2013-12-04 23:35:00
5:55 PM,39.2,35.6,87,29.83,3.0,NW,9.2,-,N/A,,Overcast,320,2013-12-04 23:55:00
6:15 PM,39.2,35.6,87,29.83,4.0,NW,9.2,-,N/A,,Overcast,310,2013-12-05 00:15:00
6:35 PM,37.4,33.8,87,29.83,4.0,NW,8.1,-,N/A,,Overcast,310,2013-12-05 00:35:00
6:55 PM,37.4,33.8,87,29.84,6.0,NW,8.1,-,N/A,,Overcast,310,2013-12-05 00:55:00
7:15 PM,37.4,33.8,87,29.85,3.0,NW,6.9,-,N/A,,Overcast,310,2013-12-05 01:15:00
7:35 PM,37.4,33.8,87,29.86,8.0,NNW,6.9,-,N/A,,Overcast,340,2013-12-05 01:35:00
7:55 PM,37.4,33.8,87,29.87,9.0,NW,5.8,-,N/A,,Overcast,310,2013-12-05 01:55:00
8:15 PM,37.4,32.0,81,29.87,10.0,NNW,5.8,-,N/A,,Overcast,330,2013-12-05 02:15:00
8:35 PM,37.4,32.0,81,29.87,10.0,NNW,6.9,-,N/A,,Overcast,340,2013-12-05 02:35:00
8:55 PM,37.4,30.2,75,29.89,10.0,NNW,8.1,-,N/A,,Overcast,340,2013-12-05 02:55:00
9:15 PM,35.6,30.2,81,29.88,10.0,NW,8.1,-,N/A,,Overcast,320,2013-12-05 03:15:00
9:35 PM,35.6,30.2,81,29.89,10.0,NNW,6.9,-,N/A,,Overcast,330,2013-12-05 03:35:00
9:55 PM,35.6,28.4,75,29.89,10.0,NNW,8.1,-,N/A,,Overcast,330,2013-12-05 03:55:00
10:15 PM,35.6,28.4,75,29.90,10.0,NNW,8.1,-,N/A,,Overcast,340,2013-12-05 04:15:00
10:35 PM,33.8,28.4,81,29.91,10.0,NNW,8.1,-,N/A,,Overcast,330,2013-12-05 04:35:00
10:55 PM,33.8,28.4,81,29.93,10.0,NW,6.9,-,N/A,,Overcast,320,2013-12-05 04:55:00
11:15 PM,33.8,28.4,81,29.94,10.0,NNW,6.9,-,N/A,,Overcast,330,2013-12-05 05:15:00
11:35 PM,32.0,26.6,80,29.95,10.0,NW,5.8,-,N/A,,Overcast,320,2013-12-05 05:35:00
11:55 PM,32.0,26.6,80,29.95,10.0,NNW,8.1,-,N/A,,Overcast,330,2013-12-05 05:55:00